Hourly Data Report for June 14, 2004

TORONTO CITY
ONTARIO

43°40'00.000" N
79°24'00.000" W
112.50 m
6158355
71508
XTO

Download Data

Hourly Data (June 2004)
Hourly Data Report for June 14, 2004
TIME
LST
Temp Definition
°C
Dew Point Definition
°C
Rel Hum Definition
%
Precip. Amount Definition
mm

Wind Dir Definition
10's deg

Wind Spd Definition
km/h
Visibility Definition
km
Stn Press Definition
kPa
Hmdx Definition


Wind Chill Definition


Weather Definition


00:00 20.2 19.5 96   LegendMM LegendMM LegendMM 99.47 27   LegendNANA
01:00 19.9 19.6 98   LegendMM LegendMM LegendMM 99.38     LegendNANA
02:00 19.1 18.7 98   LegendMM LegendMM LegendMM 99.46     LegendNANA
03:00 18.7 18.3 98   LegendMM LegendMM LegendMM 99.53     LegendNANA
04:00 18.5 18.2 98   LegendMM LegendMM LegendMM 99.56     LegendNANA
05:00 17.9 17.6 98   LegendMM LegendMM LegendMM 99.63     LegendNANA
06:00 18.4 18.0 98   LegendMM LegendMM LegendMM 99.69     LegendNANA
07:00 20.4 18.7 90   LegendMM LegendMM LegendMM 99.75 27   LegendNANA
08:00 21.9 18.1 79   LegendMM LegendMM LegendMM 99.78 28   LegendNANA
09:00 23.7 17.9 70   LegendMM LegendMM LegendMM 99.80 30   LegendNANA
10:00 24.2 17.8 67   LegendMM LegendMM LegendMM 99.79 30   LegendNANA
11:00 25.1 18.1 65   LegendMM LegendMM LegendMM 99.79 31   LegendNANA
12:00 26.1 17.8 60   LegendMM LegendMM LegendMM 99.78 32   LegendNANA
13:00 27.1 17.9 57   LegendMM LegendMM LegendMM 99.76 33   LegendNANA
14:00 26.7 18.8 62   LegendMM LegendMM LegendMM 99.71 33   LegendNANA
15:00 27.4 18.3 58   LegendMM LegendMM LegendMM 99.63 34   LegendNANA
16:00 24.6 17.5 65   LegendMM LegendMM LegendMM 99.58 30   LegendNANA
17:00 23.2 15.3 61   LegendMM LegendMM LegendMM 99.62 27   LegendNANA
18:00 23.4 14.6 58   LegendMM LegendMM LegendMM 99.60 27   LegendNANA
19:00 20.8 16.1 74   LegendMM LegendMM LegendMM 99.54 25   LegendNANA
20:00 18.5 17.4 93   LegendMM LegendMM LegendMM 99.62     LegendNANA
21:00 18.2 17.3 94   LegendMM LegendMM LegendMM 99.72     LegendNANA
22:00 17.7 16.8 94   LegendMM LegendMM LegendMM 99.78     LegendNANA
23:00 17.9 17.1 95   LegendMM LegendMM LegendMM 99.80     LegendNANA

Notes on Data Quality.

Legend

  • E = Estimated
  • M = Missing
  • NA = Not Available*
  • [empty] = Indicates an unobserved value
Date modified: